When you browse on this site, cookies collect data to enhance your experience and personalize the content and advertising you see.
Visit our Privacy Policy to learn more. By continuing to use the site, you agree to this use of cookies and data.
  • In Portugal
  • List of Countries
  • For 7 days
  • Water Temperature
  • Weather Map
  • Weather Widgets
  • user-avatar
    Login

    Hourly Weather Laszkar Gah

    Today, 27 May, Wednesday

    Time Temperature Precipitation Wind Pressure Humidity
    00:00 +29°C° 0 mm 3 mps 689 mmHg 19%
    01:00 +28°C° 0 mm 1 mps 689 mmHg 21%
    02:00 +27°C° 0 mm 2 mps 688 mmHg 21%
    03:00 +27°C° 0 mm 2 mps 688 mmHg 21%
    04:00 +27°C° 0 mm 3 mps 688 mmHg 21%
    05:00 +28°C° 0 mm 3 mps 689 mmHg 20%
    06:00 +30°C° 0 mm 4 mps 689 mmHg 19%
    07:00 +32°C° 0 mm 4 mps 690 mmHg 18%
    08:00 +34°C° 0 mm 5 mps 690 mmHg 15%
    09:00 +36°C° 0 mm 5 mps 690 mmHg 13%
    10:00 +40°C° 0 mm 6 mps 691 mmHg 11%
    11:00 +41°C° 0 mm 5 mps 690 mmHg 10%
    12:00 +42°C° 0 mm 5 mps 690 mmHg 8%
    13:00 +43°C° 0 mm 5 mps 689 mmHg 7%
    14:00 +43°C° 0 mm 5 mps 689 mmHg 7%
    15:00 +43°C° 0 mm 4 mps 688 mmHg 7%
    16:00 +43°C° 0 mm 4 mps 688 mmHg 6%
    17:00 +41°C° 0 mm 4 mps 687 mmHg 7%
    18:00 +38°C° 0 mm 3 mps 687 mmHg 8%
    19:00 +36°C° 0 mm 3 mps 687 mmHg 8%
    20:00 +36°C° 0 mm 7 mps 687 mmHg 10%
    21:00 +36°C° 0 mm 12 mps 687 mmHg 13%
    22:00 +35°C° 0 mm 16 mps 688 mmHg 15%
    23:00 +35°C° 0 mm 16 mps 687 mmHg 15%

    Tomorrow, 28 May, Thursday

    Time Temperature Precipitation Wind Pressure Humidity
    00:00 +33°C° 0 mm 16 mps 687 mmHg 15%
    01:00 +33°C° 0 mm 16 mps 687 mmHg 15%
    02:00 +32°C° 0 mm 13 mps 687 mmHg 16%
    03:00 +31°C° 0 mm 10 mps 687 mmHg 17%
    04:00 +31°C° 0 mm 8 mps 686 mmHg 18%
    05:00 +32°C° 0 mm 7 mps 687 mmHg 17%
    06:00 +32°C° 0 mm 6 mps 687 mmHg 16%
    07:00 +33°C° 0 mm 6 mps 688 mmHg 15%
    08:00 +35°C° 0 mm 7 mps 688 mmHg 14%
    09:00 +38°C° 0 mm 7 mps 688 mmHg 12%
    10:00 +40°C° 0 mm 8 mps 688 mmHg 11%
    11:00 +41°C° 0 mm 7 mps 688 mmHg 10%
    12:00 +42°C° 0 mm 6 mps 687 mmHg 9%
    13:00 +44°C° 0 mm 6 mps 687 mmHg 8%
    14:00 +44°C° 0 mm 6 mps 686 mmHg 8%
    15:00 +44°C° 0 mm 6 mps 686 mmHg 8%
    16:00 +44°C° 0 mm 6 mps 685 mmHg 7%
    17:00 +41°C° 0 mm 5 mps 685 mmHg 8%
    18:00 +40°C° 0 mm 5 mps 685 mmHg 9%
    19:00 +37°C° 0 mm 4 mps 685 mmHg 9%
    20:00 +36°C° 0 mm 7 mps 685 mmHg 11%
    21:00 +37°C° 0 mm 10 mps 686 mmHg 13%
    22:00 +36°C° 0 mm 12 mps 686 mmHg 15%
    23:00 +34°C° 0 mm 11 mps 686 mmHg 17%

    Day after tomorrow, 29 May, Friday

    Time Temperature Precipitation Wind Pressure Humidity
    00:00 +34°C° 0 mm 9 mps 686 mmHg 18%
    01:00 +33°C° 0 mm 8 mps 685 mmHg 20%
    02:00 +32°C° 0 mm 7 mps 685 mmHg 21%
    03:00 +30°C° 0 mm 6 mps 685 mmHg 21%
    04:00 +30°C° 0 mm 5 mps 685 mmHg 22%
    05:00 +32°C° 0 mm 6 mps 686 mmHg 21%
    06:00 +33°C° 0 mm 6 mps 686 mmHg 19%
    07:00 +35°C° 0 mm 6 mps 687 mmHg 17%
    08:00 +36°C° 0 mm 6 mps 687 mmHg 16%
    09:00 +39°C° 0 mm 6 mps 687 mmHg 14%
    10:00 +41°C° 0 mm 6 mps 688 mmHg 12%
    11:00 +42°C° 0 mm 5 mps 687 mmHg 11%
    12:00 +42°C° 0 mm 5 mps 687 mmHg 10%
    13:00 +43°C° 0 mm 4 mps 686 mmHg 9%
    14:00 +43°C° 0 mm 4 mps 686 mmHg 9%
    15:00 +43°C° 0 mm 4 mps 685 mmHg 9%
    16:00 +43°C° 0 mm 3 mps 685 mmHg 8%
    17:00 +42°C° 0 mm 3 mps 685 mmHg 10%
    18:00 +39°C° 0 mm 3 mps 685 mmHg 11%
    19:00 +37°C° 0 mm 3 mps 685 mmHg 12%
    20:00 +36°C° 0.1 mm 5 mps 686 mmHg 15%
    21:00 +35°C° 0.1 mm 7 mps 686 mmHg 17%
    22:00 +34°C° 0.1 mm 9 mps 687 mmHg 20%
    23:00 +34°C° 0 mm 8 mps 687 mmHg 21%

    30 May, Saturday

    Time Temperature Precipitation Wind Pressure Humidity
    00:00 +33°C° 0 mm 7 mps 686 mmHg 23%
    01:00 +32°C° 0 mm 6 mps 686 mmHg 24%
    02:00 +30°C° 0 mm 5 mps 686 mmHg 26%
    03:00 +30°C° 0 mm 4 mps 687 mmHg 27%
    04:00 +29°C° 0 mm 4 mps 687 mmHg 29%
    05:00 +30°C° 0 mm 4 mps 687 mmHg 27%
    06:00 +32°C° 0 mm 5 mps 688 mmHg 25%
    07:00 +34°C° 0 mm 5 mps 688 mmHg 24%
    08:00 +35°C° 0 mm 4 mps 689 mmHg 21%
    09:00 +37°C° 0 mm 3 mps 689 mmHg 18%
    10:00 +38°C° 0 mm 2 mps 689 mmHg 15%
    11:00 +39°C° 0 mm 3 mps 689 mmHg 14%
    12:00 +40°C° 0 mm 3 mps 689 mmHg 12%
    13:00 +42°C° 0 mm 3 mps 688 mmHg 10%
    14:00 +42°C° 0 mm 3 mps 688 mmHg 9%
    15:00 +43°C° 0 mm 4 mps 687 mmHg 8%
    16:00 +43°C° 0 mm 4 mps 687 mmHg 7%
    17:00 +41°C° 0 mm 4 mps 687 mmHg 7%
    18:00 +40°C° 0 mm 4 mps 687 mmHg 8%
    19:00 +37°C° 0 mm 3 mps 687 mmHg 8%
    20:00 +36°C° 0 mm 3 mps 687 mmHg 8%
    21:00 +35°C° 0 mm 3 mps 687 mmHg 8%
    22:00 +34°C° 0 mm 3 mps 687 mmHg 8%
    23:00 +33°C° 0 mm 3 mps 687 mmHg 9%

    31 May, Sunday

    Time Temperature Precipitation Wind Pressure Humidity
    00:00 +31°C° 0 mm 3 mps 687 mmHg 10%
    01:00 +30°C° 0 mm 3 mps 687 mmHg 11%
    02:00 +30°C° 0 mm 3 mps 687 mmHg 15%
    03:00 +29°C° 0 mm 4 mps 687 mmHg 19%
    04:00 +28°C° 0 mm 4 mps 687 mmHg 24%
    05:00 +29°C° 0 mm 4 mps 688 mmHg 24%
    06:00 +32°C° 0 mm 4 mps 688 mmHg 23%
    07:00 +33°C° 0 mm 5 mps 689 mmHg 23%
    08:00 +35°C° 0 mm 4 mps 689 mmHg 19%
    09:00 +37°C° 0 mm 3 mps 690 mmHg 16%
    10:00 +38°C° 0 mm 3 mps 690 mmHg 13%
    11:00 +40°C° 0 mm 2 mps 690 mmHg 10%
    12:00 +41°C° 0 mm 2 mps 689 mmHg 8%
    13:00 +42°C° 0 mm 2 mps 689 mmHg 6%
    14:00 +42°C° 0 mm 2 mps 689 mmHg 6%
    15:00 +42°C° 0 mm 2 mps 688 mmHg 5%
    16:00 +43°C° 0 mm 2 mps 688 mmHg 5%
    17:00 +42°C° 0 mm 3 mps 688 mmHg 5%
    18:00 +39°C° 0 mm 3 mps 687 mmHg 6%
    19:00 +37°C° 0 mm 3 mps 687 mmHg 6%
    20:00 +36°C° 0 mm 3 mps 687 mmHg 6%
    21:00 +35°C° 0 mm 3 mps 688 mmHg 5%
    22:00 +34°C° 0 mm 3 mps 688 mmHg 5%
    23:00 +33°C° 0 mm 3 mps 688 mmHg 6%

    1 June, Monday

    Time Temperature Precipitation Wind Pressure Humidity
    00:00 +31°C° 0 mm 3 mps 687 mmHg 7%
    01:00 +32°C° 0 mm 4 mps 687 mmHg 7%
    02:00 +30°C° 0 mm 4 mps 687 mmHg 8%
    03:00 +29°C° 0 mm 4 mps 688 mmHg 9%
    04:00 +29°C° 0 mm 4 mps 688 mmHg 9%
    05:00 +30°C° 0 mm 4 mps 688 mmHg 9%
    06:00 +32°C° 0 mm 4 mps 689 mmHg 8%
    07:00 +33°C° 0 mm 4 mps 690 mmHg 7%
    08:00 +35°C° 0 mm 4 mps 690 mmHg 6%
    09:00 +36°C° 0 mm 3 mps 690 mmHg 5%
    10:00 +38°C° 0 mm 3 mps 690 mmHg 4%
    11:00 +40°C° 0 mm 2 mps 690 mmHg 4%
    12:00 +41°C° 0 mm 2 mps 690 mmHg 3%
    13:00 +42°C° 0 mm 2 mps 690 mmHg 3%
    14:00 +43°C° 0 mm 2 mps 689 mmHg 3%
    15:00 +43°C° 0 mm 2 mps 689 mmHg 3%
    16:00 +44°C° 0 mm 3 mps 689 mmHg 2%
    17:00 +41°C° 0 mm 2 mps 688 mmHg 3%
    18:00 +38°C° 0 mm 2 mps 688 mmHg 4%
    19:00 +36°C° 0 mm 2 mps 687 mmHg 4%
    20:00 +35°C° 0 mm 2 mps 688 mmHg 4%
    21:00 +34°C° 0 mm 2 mps 688 mmHg 4%
    22:00 +32°C° 0 mm 2 mps 688 mmHg 4%
    23:00 +33°C° 0 mm 3 mps 688 mmHg 5%
    Show more